Location: Cannifist
(18.2333°N, 63.0167°W)
Time: 20:23:06
(UTC+00:00)

GPS 2-12 Rocket1 - Pass Details

Date: 27 February 2020
Orbit: 586 x 652 km, 20.0° (Epoch: 05 April)

Event Time Altitude Azimuth Distance (km) Brightness Sun altitude
Rises 23:41:12 0° 259° (W) 2,798 7.9 -20.6°
Reaches altitude 10° 23:43:30 10° 259° (W) 1,904 6.7 -21.2°
Maximum altitude 23:47:57 87° 171° (S) 597 2.8 -22.2°
Enters shadow 23:48:22 73° 91° (E) 622 2.8 -22.3°
